Location: Unspecified
(22.6800°N, 112.2000°E)
Time: 08:54:15
(UTC+08:00)

X-37B - Pass Details

Date: 24 June 2021
Orbit: 383 x 392 km, 45.0° (Epoch: 01 July)

Event Time Altitude Azimuth Distance (km) Brightness Sun altitude
Exits shadow 03:19:57 14° 29° (NNE) 1,182 3.8 -28.7°
Maximum altitude 03:20:11 14° 34° (NE) 1,178 3.8 -28.6°
Drops below altitude 10° 03:21:59 10° 69° (ENE) 1,400 4.2 -28.4°
Sets 03:24:45 0° 96° (E) 2,254 5.0 -27.9°
